Location: Banios
(43.0451°N, 0.2335°E)
Time: 03:48:31
(UTC+00:00)

Cosmos 1943 Rocket - Visible Passes

Search period start: 13 May 2021 00:00
Search period end: 23 May 2021 00:00
Orbit: 812 x 843 km, 71.0° (Epoch: 12 May)

Date Brightness Start Highest point End Pass type
(mag) Time Alt. Az. Time Alt. Az. Time Alt. Az.
13 May 2.8 21:34:50 34° ESE 21:35:05 34° ESE 21:40:06 10° NE visible
13 May 3.4 23:16:18 25° WSW 23:18:46 37° WNW 23:23:56 10° N visible
14 May 3.0 21:15:07 29° ESE 21:15:55 30° ESE 21:20:44 10° NE visible
14 May 3.2 22:56:34 24° WSW 22:59:29 41° WNW 23:04:47 10° NNE visible
15 May 3.2 20:55:14 23° SE 20:56:45 26° ESE 21:01:21 10° NE visible
15 May 3.0 22:36:39 20° SW 22:40:13 46° WNW 22:45:37 10° NNE visible
16 May 3.3 20:35:06 17° SE 20:37:37 23° ESE 20:41:55 10° NE visible
16 May 2.9 22:16:30 16° SW 22:20:57 52° WNW 22:26:26 10° NNE visible
17 May 5.1 00:05:18 10° NW 00:06:03 10° NW 00:06:50 10° NNW visible
17 May 3.5 20:14:37 11° SE 20:18:28 20° E 20:22:27 10° NE visible
17 May 2.7 21:56:09 10° SW 22:01:43 59° WNW 22:07:15 10° NNE visible
17 May 5.0 23:44:52 10° WNW 23:46:41 11° NW 23:48:30 10° NNW visible
18 May 3.6 19:55:42 10° SE 19:59:19 18° E 20:02:56 10° ENE visible
18 May 2.5 21:36:52 10° SSW 21:42:28 67° WNW 21:48:03 10° NNE visible
18 May 4.9 23:24:52 10° WNW 23:27:18 13° NW 23:29:45 10° NNW visible
19 May 2.3 21:17:36 10° SSW 21:23:13 76° WNW 21:28:50 10° NNE visible
19 May 4.9 23:05:01 10° WNW 23:07:57 14° NW 23:10:52 10° NNW visible
20 May 2.2 20:58:21 10° SSW 21:03:59 86° WNW 21:09:37 10° NNE visible
20 May 4.9 22:45:16 10° W 22:48:35 16° NW 22:51:55 10° N visible
21 May 2.1 20:39:09 10° SSW 20:44:46 85° ESE 20:50:23 10° NNE visible
21 May 4.9 22:25:35 10° W 22:29:14 17° NW 22:32:55 10° N visible
22 May 2.1 20:19:57 10° SSW 20:25:33 75° ESE 20:31:09 10° NNE visible
22 May 4.8 22:05:56 10° W 22:09:55 19° NW 22:13:52 10° N visible
